Wind_Speed
15 14 12 9 8 10 13 14 14 15 17 19 17 18 19 19 19 18 18 17 17 17 17 18 19 20 21 21 22 23 24 26 27 28 30 32 34 35 36 38 39 40 40 40
15 14 14 13 12 13 15 15 14 14 17 21 21 20 19 20 20 20 19 19 18 18 19 19 20 21 22 23 24 25 26 28 29 30 32 34 36 37 39 40 41 41 42 42
16 14 15 15 14 14 14 14 14 15 18 20 20 20 20 20 20 20 20 20 20 20 20 21 22 23 24 24 25 26 28 29 31 33 35 36 38 40 41 42 42 43 44 43
16 15 16 12 12 14 15 15 16 18 19 20 20 19 20 20 20 20 21 21 21 21 21 22 23 24 26 26 27 28 30 31 33 35 36 38 40 42 43 44 44 45 44 43
17 16 16 14 16 15 15 17 17 18 18 19 20 20 21 21 20 21 21 22 23 23 24 24 25 26 27 28 29 30 32 34 36 38 38 40 42 44 45 45 46 46 45 44
17 16 17 19 19 19 19 19 18 17 19 20 20 21 23 23 22 23 23 23 24 24 25 26 27 27 28 30 31 32 34 36 38 39 40 42 43 44 45 46 47 46 46 44
17 16 19 23 21 18 18 20 18 19 21 22 23 24 25 25 25 26 26 26 26 26 26 27 28 29 30 32 34 35 36 38 40 41 43 43 44 46 46 47 47 46 45 44
21 21 23 24 24 23 21 19 19 22 24 25 26 28 28 27 27 27 28 28 28 28 28 29 30 31 33 35 37 38 39 41 43 44 45 45 47 48 48 48 47 46 44 43
26 26 26 25 26 27 26 24 24 25 26 28 29 29 29 30 29 28 29 30 30 30 30 31 33 34 36 38 40 41 42 44 46 46 46 47 48 49 49 48 47 46 44 43
28 28 28 26 26 25 24 26 27 28 29 30 30 30 30 31 31 30 30 32 32 33 34 35 36 37 39 40 42 44 45 47 47 48 48 49 50 49 49 49 48 46 45 43
28 29 28 29 29 28 28 29 30 30 30 31 31 32 32 33 33 33 33 35 35 35 37 38 39 40 41 43 45 46 47 48 49 50 50 51 51 50 49 48 48 47 45 43
29 28 31 32 30 29 29 31 32 32 32 33 33 33 34 34 35 36 36 37 38 38 39 41 42 43 44 45 47 47 48 50 52 52 52 51 51 51 50 49 47 45 43 41
29 30 31 32 31 32 32 33 33 33 34 34 34 35 36 36 37 38 39 39 40 41 42 43 44 45 47 48 48 49 50 52 53 53 52 52 51 51 50 48 46 44 41 39
29 29 31 32 32 32 33 34 34 35 35 35 36 37 37 38 39 40 40 41 42 43 44 45 46 48 49 50 50 51 52 53 53 52 52 52 52 51 50 48 45 43 40 38
29 31 32 32 33 34 34 35 36 36 36 37 38 38 39 40 40 41 42 43 44 45 46 47 49 50 51 51 52 52 53 53 53 54 54 53 52 51 48 46 43 40 38 36
32 33 34 34 35 36 36 37 37 38 38 39 39 40 41 41 42 43 44 45 46 48 49 50 50 51 52 52 53 53 53 54 54 54 54 53 52 49 47 44 41 38 36 35
34 34 35 36 37 37 38 38 39 40 40 41 41 42 42 43 44 45 46 47 48 49 51 51 52 53 54 54 55 55 55 55 55 54 53 52 49 46 43 40 38 35 34 33
35 36 37 38 39 39 40 40 41 41 42 42 43 44 44 45 46 47 48 49 50 51 53 53 54 55 55 56 55 55 55 55 54 54 52 49 46 43 40 38 36 34 32 31
36 37 38 39 40 40 41 41 42 43 43 44 45 46 47 48 49 50 51 52 53 54 55 55 56 56 56 56 56 56 56 55 54 52 50 47 43 40 37 35 34 31 29 29
36 38 39 40 40 41 42 43 44 44 45 47 48 49 50 51 52 53 53 54 55 55 56 56 57 57 57 57 56 56 55 53 52 49 46 42 40 37 35 33 30 28 28 27
38 39 40 41 42 43 44 45 46 47 48 50 50 52 52 53 54 54 55 55 56 56 56 57 57 57 57 56 55 54 53 51 48 45 42 39 36 34 32 30 28 27 25 24
40 41 42 43 44 46 46 47 48 50 51 52 52 53 54 54 55 55 56 57 57 57 57 56 56 55 55 54 52 51 49 46 43 40 37 35 32 30 28 26 24 23 22 22
43 44 45 46 47 48 48 49 50 51 52 53 54 54 54 54 55 55 55 55 55 55 54 54 54 53 52 51 49 47 44 41 38 36 34 31 28 26 24 22 21 21 20 20
46 47 47 48 49 49 50 51 51 52 52 53 53 54 54 54 53 53 53 53 52 52 52 51 51 49 49 47 44 41 38 35 33 31 29 26 24 22 20 19 18 18 17 17
48 48 49 49 50 50 51 52 52 52 52 51 51 51 51 51 52 51 51 51 50 49 49 47 46 44 42 41 38 35 32 29 27 25 24 22 21 20 17 16 16 16 15 14
48 49 49 49 49 49 49 49 49 49 48 48 48 48 48 48 48 48 47 47 46 45 44 42 41 39 38 37 34 31 29 26 24 22 21 20 19 17 15 15 15 14 13 12
47 47 47 46 46 46 46 46 45 45 44 45 45 44 44 44 44 43 42 42 41 40 40 39 38 37 35 32 29 27 25 23 21 20 19 17 16 16 16 14 13 13 12 11
Wind_Direction
266 276 286 289 278 268 266 266 266 272 280 285 285 286 293 298 299 300 301 302 302 305 307 308 310 312 314 315 316 318 319 320 321 322 324 325 325 325 325 324 323 322 321 318
261 263 269 264 259 265 268 265 266 266 268 271 277 284 290 293 295 297 298 300 301 302 304 306 308 310 312 313 315 316 318 319 320 321 323 324 325 325 325 324 324 323 322 319
262 253 251 253 251 255 261 257 259 260 263 268 274 281 289 291 292 295 297 298 299 300 302 304 306 308 309 312 314 315 317 318 319 319 321 322 324 325 325 325 325 324 323 320
266 257 252 256 259 257 259 258 262 264 267 274 280 285 288 289 291 293 295 298 299 300 301 303 304 306 308 310 312 314 316 316 317 317 318 321 323 324 324 325 325 324 323 321
263 256 256 249 246 242 247 254 261 263 267 272 282 291 291 290 293 295 296 298 299 300 301 302 303 305 307 309 311 312 314 315 317 318 317 319 321 323 324 324 324 324 324 321
263 253 260 264 255 244 240 246 256 262 271 272 278 287 290 292 294 295 296 296 297 298 299 301 302 304 306 307 309 311 313 315 317 318 318 318 320 322 323 324 324 323 323 321
265 254 254 258 258 254 249 253 258 266 272 275 279 285 288 290 293 294 295 295 294 295 297 299 302 303 304 306 308 309 311 313 315 316 317 318 320 322 322 323 323 323 323 321
268 258 251 255 254 252 251 253 261 269 271 275 280 284 286 288 289 290 291 291 292 293 295 297 300 302 303 306 308 309 311 312 314 315 316 317 319 321 322 322 322 322 322 321
264 261 258 259 252 252 255 260 266 270 274 277 280 283 285 287 288 288 289 290 292 293 294 296 298 301 304 306 308 309 311 312 313 313 314 315 318 320 321 321 321 321 321 320
267 268 269 267 265 266 268 272 275 276 276 277 279 281 283 285 287 288 288 289 291 293 295 297 298 300 303 305 307 307 310 312 312 313 313 315 317 318 319 320 320 320 320 320
266 268 271 272 275 275 273 274 275 275 275 276 277 280 281 283 285 286 287 288 290 292 294 296 299 301 302 304 306 308 309 310 310 312 312 314 316 317 318 319 318 319 319 319
266 268 271 274 274 274 272 273 274 275 275 277 278 279 280 283 284 285 286 287 289 291 294 295 297 300 301 303 305 307 308 309 310 310 311 312 314 315 316 317 317 317 317 317
268 271 272 274 275 275 276 276 276 277 278 279 279 280 281 282 283 285 286 288 290 291 293 295 297 299 300 302 304 306 306 307 308 308 309 311 312 314 314 315 315 315 316 316
269 270 271 273 274 275 276 277 278 279 279 280 281 281 282 283 284 286 287 288 290 292 293 295 296 298 300 301 303 304 305 307 307 307 308 309 311 311 312 313 312 313 314 314
268 271 272 274 275 276 277 279 280 281 281 282 282 283 284 285 286 287 288 289 291 292 293 295 296 297 299 300 302 303 304 305 305 306 307 308 309 310 310 310 310 310 311 312
270 272 273 275 276 278 279 280 281 282 283 284 285 285 286 287 288 288 289 290 291 292 293 294 295 297 299 300 301 302 303 303 304 305 305 306 307 307 308 307 307 308 308 309
273 274 275 277 278 279 280 281 283 284 285 286 287 287 288 289 289 290 291 291 292 293 293 295 296 298 298 298 299 300 301 302 302 302 303 304 304 304 304 303 303 303 304 306
275 277 278 279 280 281 282 283 285 286 287 288 288 289 290 290 291 291 292 293 293 293 294 296 297 297 298 298 299 300 300 300 300 301 301 301 301 301 300 299 299 299 300 302
277 278 279 280 281 283 284 285 286 287 288 289 289 290 291 291 292 292 292 293 293 294 295 296 297 297 297 298 298 298 299 298 298 298 298 298 297 296 295 293 293 295 296 299
279 279 281 282 283 284 286 287 288 288 289 290 290 291 291 292 292 292 293 293 294 295 296 296 297 297 297 297 297 297 297 297 297 296 295 294 293 293 292 290 290 289 290 294
281 281 282 283 284 285 286 287 288 288 289 290 291 292 292 293 293 293 294 294 295 296 296 297 297 297 297 297 297 297 297 296 295 294 292 291 289 287 287 286 286 285 287 289
282 283 284 285 286 286 287 288 288 289 290 291 291 292 293 294 294 294 295 296 297 297 297 297 297 298 297 297 297 297 296 295 293 291 289 288 286 284 284 281 281 282 283 285
285 285 286 286 287 288 289 289 290 291 291 292 293 293 294 294 295 295 296 297 297 298 298 298 298 298 298 297 297 296 295 293 290 287 286 285 282 280 278 276 275 276 279 283
286 287 287 288 289 289 290 290 291 292 292 293 294 294 295 295 296 296 297 298 298 299 299 299 299 298 298 297 297 295 293 290 288 285 281 278 276 273 270 268 267 268 274 279
287 287 288 289 290 291 291 292 293 293 294 294 295 296 296 297 297 298 298 299 299 300 300 300 299 299 299 298 295 294 292 289 285 281 275 272 269 265 259 254 257 262 267 272
287 288 289 290 291 292 292 293 294 294 295 295 296 297 297 297 298 298 299 300 300 301 301 301 300 299 299 297 294 292 289 286 281 273 269 267 262 254 249 253 254 253 258 267
289 290 290 291 292 293 294 295 295 296 296 297 298 298 298 299 299 300 300 300 301 301 301 301 300 300 299 297 294 291 287 281 275 268 263 258 251 244 242 246 246 247 254 261
Height
5850 5850 5848 5848 5851 5853 5854 5854 5854 5853 5851 5849 5848 5848 5847 5846 5845 5844 5843 5842 5841 5839 5838 5836 5834 5832 5830 5828 5825 5822 5819 5816 5812 5809 5804 5800 5795 5790 5785 5779 5773 5767 5761 5755
5846 5847 5846 5848 5850 5850 5850 5850 5850 5850 5849 5846 5845 5845 5845 5844 5842 5841 5840 5838 5837 5836 5834 5832 5830 5828 5826 5823 5820 5817 5814 5810 5807 5803 5798 5793 5788 5783 5777 5771 5765 5758 5752 5745
5842 5842 5842 5844 5845 5845 5845 5845 5846 5846 5845 5843 5842 5842 5841 5840 5839 5837 5836 5834 5833 5831 5830 5828 5826 5824 5821 5818 5815 5812 5809 5805 5800 5796 5791 5786 5781 5775 5769 5763 5756 5749 5743 5736
5837 5838 5838 5841 5840 5841 5841 5841 5841 5840 5839 5838 5838 5837 5836 5835 5834 5833 5831 5830 5828 5826 5825 5823 5821 5818 5815 5813 5810 5806 5803 5799 5794 5789 5784 5779 5773 5767 5761 5754 5747 5740 5733 5726
5832 5832 5833 5835 5834 5835 5835 5836 5835 5835 5835 5834 5833 5832 5830 5830 5829 5828 5827 5825 5823 5821 5819 5817 5815 5813 5810 5807 5803 5800 5796 5791 5787 5782 5776 5771 5765 5759 5752 5745 5738 5731 5724 5717
5828 5828 5829 5829 5828 5827 5829 5829 5829 5829 5829 5829 5828 5827 5825 5824 5824 5822 5821 5819 5818 5816 5814 5811 5809 5806 5803 5800 5796 5792 5788 5784 5779 5773 5768 5762 5756 5749 5742 5735 5728 5721 5714 5707
5822 5823 5824 5823 5822 5823 5824 5823 5823 5823 5824 5823 5821 5821 5820 5818 5817 5816 5815 5813 5811 5809 5807 5805 5802 5799 5796 5792 5789 5785 5780 5776 5770 5765 5759 5753 5747 5740 5733 5726 5719 5712 5705 5698
5816 5817 5818 5815 5817 5817 5816 5815 5817 5817 5818 5816 5816 5815 5813 5812 5811 5810 5808 5806 5804 5802 5800 5798 5795 5792 5788 5784 5780 5776 5772 5767 5762 5756 5750 5744 5738 5731 5724 5717 5710 5703 5696 5689
5810 5811 5810 5809 5808 5808 5808 5809 5810 5811 5810 5810 5809 5808 5806 5805 5804 5802 5801 5799 5796 5794 5792 5790 5787 5784 5780 5776 5771 5767 5762 5757 5752 5746 5740 5734 5728 5721 5714 5707 5700 5693 5687 5680
5802 5801 5802 5801 5802 5801 5801 5803 5803 5804 5804 5803 5802 5801 5799 5797 5796 5794 5792 5790 5788 5786 5783 5781 5778 5774 5771 5766 5762 5757 5752 5747 5742 5736 5731 5725 5718 5711 5705 5698 5690 5684 5677 5670
5797 5796 5795 5795 5796 5796 5796 5797 5796 5796 5796 5795 5794 5792 5791 5789 5787 5786 5784 5782 5779 5777 5774 5771 5768 5765 5761 5756 5752 5747 5742 5737 5731 5726 5720 5714 5708 5701 5694 5688 5680 5674 5667 5660
5790 5790 5790 5789 5790 5789 5789 5789 5788 5788 5787 5786 5785 5783 5782 5780 5778 5776 5774 5772 5770 5767 5764 5761 5757 5754 5750 5746 5741 5737 5732 5726 5720 5714 5709 5703 5697 5691 5684 5678 5671 5664 5658 5651
5784 5783 5782 5782 5782 5782 5781 5780 5779 5779 5778 5777 5775 5774 5772 5771 5769 5767 5764 5762 5760 5757 5753 5750 5747 5743 5739 5734 5730 5726 5720 5714 5709 5703 5697 5691 5685 5679 5673 5668 5661 5655 5649 5643
5776 5775 5775 5775 5774 5774 5772 5771 5770 5769 5768 5767 5765 5764 5762 5760 5758 5756 5754 5751 5749 5746 5742 5739 5735 5731 5727 5723 5718 5714 5708 5703 5697 5691 5686 5680 5674 5668 5662 5656 5651 5645 5640 5634
5767 5767 5767 5767 5766 5765 5763 5762 5761 5759 5758 5757 5755 5754 5752 5750 5748 5745 5743 5740 5737 5734 5730 5727 5723 5719 5714 5710 5705 5700 5695 5690 5684 5679 5673 5668 5662 5656 5650 5645 5640 5635 5630 5625
5759 5759 5759 5758 5757 5756 5754 5753 5751 5749 5748 5746 5745 5743 5741 5739 5736 5734 5731 5728 5725 5721 5717 5713 5710 5706 5701 5696 5691 5687 5682 5677 5671 5666 5660 5655 5650 5644 5639 5634 5630 5626 5621 5617
5751 5750 5750 5749 5747 5746 5744 5743 5741 5739 5737 5735 5733 5731 5729 5727 5724 5721 5718 5714 5711 5707 5703 5699 5696 5692 5687 5682 5677 5673 5668 5663 5657 5652 5647 5642 5637 5632 5628 5623 5619 5616 5612 5609
5742 5741 5740 5739 5737 5736 5734 5732 5730 5728 5726 5724 5721 5719 5716 5714 5711 5708 5704 5701 5697 5693 5689 5685 5681 5677 5672 5667 5662 5657 5652 5648 5643 5637 5633 5629 5624 5620 5616 5613 5610 5607 5604 5600
5732 5731 5729 5728 5726 5725 5723 5721 5719 5716 5714 5711 5709 5706 5703 5700 5697 5694 5690 5686 5682 5678 5674 5670 5665 5661 5656 5651 5647 5642 5637 5632 5627 5623 5619 5615 5611 5608 5605 5602 5600 5597 5595 5592
5722 5720 5719 5717 5715 5713 5711 5709 5707 5704 5701 5698 5695 5692 5689 5686 5682 5679 5675 5671 5666 5662 5658 5653 5649 5644 5640 5635 5630 5625 5621 5616 5612 5608 5604 5601 5599 5596 5594 5592 5590 5588 5587 5584
5711 5710 5708 5706 5704 5701 5699 5696 5694 5691 5687 5684 5681 5678 5674 5671 5667 5663 5659 5655 5651 5646 5642 5637 5632 5627 5623 5618 5613 5609 5604 5600 5596 5593 5590 5588 5586 5584 5583 5582 5580 5580 5578 5577
5700 5698 5696 5694 5691 5688 5686 5683 5680 5677 5673 5670 5666 5662 5658 5655 5651 5646 5642 5638 5633 5629 5624 5619 5615 5610 5605 5600 5596 5592 5588 5585 5582 5579 5577 5575 5574 5573 5572 5571 5572 5571 5571 5570
5687 5685 5683 5680 5678 5675 5672 5669 5665 5662 5658 5655 5651 5647 5643 5639 5634 5630 5626 5621 5617 5612 5607 5603 5598 5594 5589 5584 5580 5577 5573 5570 5568 5566 5565 5564 5564 5563 5563 5563 5563 5564 5564 5563
5674 5672 5669 5666 5663 5660 5657 5654 5650 5647 5643 5639 5635 5631 5626 5623 5619 5614 5609 5605 5601 5596 5591 5587 5582 5578 5573 5569 5565 5562 5560 5558 5556 5555 5554 5554 5554 5554 5555 5556 5556 5557 5557 5557
5660 5658 5655 5652 5649 5645 5642 5638 5635 5631 5627 5623 5620 5615 5611 5606 5602 5599 5594 5590 5585 5581 5576 5571 5567 5563 5559 5555 5552 5550 5548 5546 5545 5545 5545 5545 5546 5546 5547 5549 5550 5551 5551 5552
5646 5643 5640 5637 5634 5630 5627 5623 5620 5616 5612 5608 5605 5601 5596 5592 5587 5583 5579 5575 5571 5567 5562 5558 5554 5550 5547 5543 5541 5539 5538 5537 5536 5536 5537 5537 5538 5540 5541 5543 5545 5545 5546 5547
5632 5629 5625 5623 5619 5616 5613 5609 5606 5602 5598 5594 5591 5587 5583 5579 5574 5570 5567 5563 5558 5554 5551 5546 5542 5539 5536 5533 5531 5529 5528 5528 5528 5529 5529 5530 5532 5534 5536 5538 5540 5541 5542 5543